Погода в Хайде

Германия     54°11′43″N   9°05′20″E
темп.,
°C
ветер,
м/с
пор.,
м/с
влажн.,
%
обл.,
%
осадки,
мм/ч
давл.,
гПа
погр.,
м
6 мая, чт
чт623:00+6з101584100 0.3 10011249
02:00+5з111580100 0.9 10021224
05:00+5з101471100 0.2 10021148
08:00+6з91368100 0.3 10021503
11:00+8з101369100 0.6 10031604
14:00+9з9115761 0.7 10041824
17:00+8з685714 0.0 10041492
20:00+6зсз467165 0.0 1004362
7 мая, пт
пт723:00+2сз238396 0.0 100556
02:00+1ссв128946 0.0 100546
05:00+2сз2287100 0.1 100565
08:00+6зсз477212 0.1 10071008
11:00+7зсз696594 0.3 10081494
14:00+9з895974 0.7 10101750
17:00+8з7107563 0.3 10111286
20:00+7з710755 0.4 1012897
8 мая, сб
сб823:00+5зсз611815 0.1 1014451
02:00+4зсз510795 0.2 1015321
05:00+4з48845 0.0 1015197
08:00+7з46735 0.0 1016812
11:00+9юз5669100 0.0 10161072
14:00+11юз4661100 0.0 10151002
17:00+12ю475797 0.0 10131530
20:00+11ююв51165100 0.0 1011623
9 мая, вс
вс923:00+10ююв81573100 0.3 1008944
02:00+9ю91995100 6.3 1005775
05:00+10ююз717935 0.1 1004464
08:00+12ююз6149299 0.1 1004410
11:00+16ю61077100 0.0 1004451
14:00+20ююв71166100 0.0 1003703
17:00+20ю51274100 0.1 1001712
20:00+18ююв71375100 0.1 1001451
10 мая, пн
пн1023:00+16ююв51388100 0.4 1001284
02:00+15ююз61396100 2.4 1002412
05:00+14ю51397100 0.3 1001400
08:00+15ююз51194100 0.3 1003566
11:00+15юз101493100 0.6 10041006
14:00+15зюз587582 0.6 1008724
17:00+16з2474100 0.0 1008521
20:00+13с3488100 0.1 1009146